Regional Weather Roundup
Issued by NWS

Home | Current Version | Previous Version | Graphics & Text | Print | Product List | Glossary Off
Versions: 1 2 3 4 5 6 7 8 9 10 11 12 13 14 15 16 17 18 19 20 21 22 23 24 25 26 27 28 29 30 31 32 33 34 35 36 37 38 39 40 41 42 43 44 45 46 47 48 49 50

000
ASUS43 KDTX 241010
RWRMI
MICHIGAN HOURLY REGIONAL WEATHER ROUNDUP
NATIONAL WEATHER SERVICE DETROIT/PONTIAC MI
600 AM EDT MON APR 24 2017

NOTE: "FAIR" INDICATES FEW OR NO CLOUDS BELOW 12,000 FEET WITH NO
SIGNIFICANT WEATHER AND/OR OBSTRUCTION TO VISIBILITY.

MIZ047>049-052>055-059>063-066>070-074>076-081>083-241100-
SOUTHEAST LOWER MICHIGAN

CITY           SKY/WX    TMP DP  RH WIND       PRES   REMARKS
ADRIAN         CLEAR     39  33  79 NE7       30.05S WCI  34
ALMA           CLEAR     38  37  94 E6        30.09S WCI  34
ANN ARBOR      CLEAR     40  36  86 N7        30.06S
BAD AXE        CLEAR     36  33  92 E3        30.11S
CARO           CLEAR     37  33  89 CALM      30.10R
DETROIT CITY   CLEAR     40  37  89 N6        30.07S
DETROIT        PTCLDY    41  36  82 NE7       30.07S
FLINT          CLEAR     37  35  92 E7        30.09S WCI  32
GROSSE ILE     PTCLDY    42  38  88 NE7       30.05S
HILLSDALE      CLEAR     36  32  87 NE6       30.03S WCI  31
HOWELL         CLEAR     40  36  86 CALM      30.06S

CITY           SKY/WX    TMP DP  RH WIND       PRES   REMARKS
JACKSON        CLEAR     40  35  83 NE3       30.05S
LAMBERTVILLE   CLEAR     42  38  87 NE5       30.04F
LANSING        CLEAR     38  34  85 E6        30.07S WCI  33
LAPEER         FAIR      38  37  96 CALM      30.09R
MASON          CLEAR     40  38  95 NE3       30.06S
MONROE         PTCLDY    41  38  87 N5        30.05S
MT. CLEMENS    CLEAR     38  38  99 N3        30.06F
PONTIAC        PTCLDY    41  35  79 NE5       30.06F
PORT HOPE        N/A     40  37  89 E13       30.10S WCI  32
PORT HURON     CLEAR     37  36  93 CALM      30.09S
TRI CITIES     CLEAR     40  36  86 E6        30.10S
MIDLAND        FAIR      40  34  78 NE5       30.09F
TROY           CLEAR     42  36  78 NE5       30.09S
SAGINAW HB     CLEAR     36  32  87 NE5       30.09S WCI  32
$$
MIZ043>046-050>051-056>058-064>065-071>073-077>080-241100-
SOUTHWEST LOWER MICHIGAN

CITY           SKY/WX    TMP DP  RH WIND       PRES   REMARKS
BATTLE CREEK   CLEAR     44  42  93 CALM      30.05R
BENTON HARBOR  CLEAR     34  30  85 CALM      30.01F
BIG RAPIDS     CLEAR     39  33  80 E6        30.07R WCI  35
COLDWATER      CLEAR     40  38  93 E3        30.03S
FREMONT        FAIR      41  33  74 E9        30.05R
HOLLAND        CLEAR     43  39  86 E8        30.04S
GRAND RAPIDS   CLEAR     41  38  89 E8        30.05S
IONIA          FAIR      40  37  87 NE9       30.06S WCI  34
KALAMAZOO      CLEAR     43  38  82 E3        30.04R
LUDINGTON      CLEAR     37  34  89 E5        30.04S WCI  34
MARSHALL       CLEAR     42  41  97 CALM      30.04R
MOUNT PLEASANT CLEAR     38  34  87 NE3       30.09S
MUSKEGON       CLEAR     42  37  82 E8        30.04S
SOUTH HAVEN    CLEAR     40  34  79 E5        30.02S
$$
MIZ016>042-241100-
NORTHERN LOWER MICHIGAN

CITY           SKY/WX    TMP DP  RH WIND       PRES   REMARKS
ALPENA         CLOUDY    36  33  89 E8        30.14F WCI  30
BEAVER ISLAND  CLEAR     33  29  85 E10       30.09F WCI  25
BELLAIRE       CLEAR     31  26  82 CALM      30.09S
CADILLAC       CLEAR     36  29  75 SE9       30.06R WCI  29
CHARLEVOIX     CLEAR     36  28  75 E12       30.12S WCI  27
FRANKFORT      CLEAR     38  27  65 SE3       30.05F
GAYLORD        CLEAR     32  24  72 CALM      30.08F
GRAYLING       CLEAR     30  23  76 E3        30.10S
HARBOR SPRINGS CLEAR     32  29  88 E12       30.10F WCI  23
HOUGHTON LAKE  CLEAR     34  24  67 E7        30.08F WCI  28
MANISTEE       CLEAR     33  30  88 E9        30.05F WCI  25
OSCODA         CLEAR     38  35  87 E7        30.13R WCI  33
PELLSTON       CLEAR     31  26  82 E5        30.12F WCI  26
ROGERS CITY    CLEAR     35  31  84 SE7       30.15S WCI  29
TRAVERSE CITY  CLEAR     32  28  85 CALM      30.07F
$$
MIZ007>008-015-241100-
EASTERN UPPER MICHIGAN

CITY           SKY/WX    TMP DP  RH WIND       PRES   REMARKS
KINROSS        CLOUDY    33  25  72 E9        30.13S WCI  25
MACKINAC ISLAN CLEAR     34  27  75 E10G21    30.11F WCI  26
NEWBERRY       CLEAR     29  27  92 E6        30.10F WCI  23
S. S. MARIE    CLOUDY    37  22  54 E8        30.14S WCI  31
MUNISING         N/A     31  26  82 CALM      30.10F
$$
MIZ004>006-011>014-085-241100-
CENTRAL UPPER MICHIGAN

CITY           SKY/WX    TMP DP  RH WIND       PRES   REMARKS
MANISTIQUE     CLEAR     28  26  91 NE5       30.09F WCI  23
ESCANABA       CLEAR     30  25  81 NE6       30.09F WCI  24
MENOMINEE      CLOUDY    35  29  78 E9        30.07F WCI  28
SAWYER-GWINN   PTCLDY    28  24  83 NE5       30.07F WCI  23
$$
MIZ001>003-009>011-084-241100-
WESTERN UPPER MICHIGAN

CITY           SKY/WX    TMP DP  RH WIND       PRES   REMARKS
IRON MOUNTAIN  CLOUDY    29  20  69 VRB5      30.04F WCI  24
HOUGHTON       CLOUDY    31  22  69 E13       30.06F WCI  21
COPPER HARBOR    N/A     33  25  72 SE5       30.11F WCI  29
IRONWOOD       MOCLDY    33  21  61 E7        29.98F WCI  27
$$

ABBREVIATIONS USED IN REMARKS
   TC - TEMPERATURE IN CELSIUS
  WCI - WIND CHILL INDEX
   HX - HEAT INDEX
  VSB - VISIBILITY





USA.gov is the U.S. government's official web portal to all federal, state and local government web resources and services.